Погода в Верхнем Нергене

Россия / Хабаровский край     49°50′38″N   136°47′51″E
темп.,
°C
ветер,
м/с
пор.,
м/с
влажн.,
%
обл.,
%
осадки,
мм/ч
давл.,
гПа
погр.,
м
18 мая, вт
вт1801:00+10ююз377198 0.0 1001112
04:00+9ю366973 0.0 1001106
07:00+10ю511685 0.0 1000237
10:00+15юз7116067 0.0 1001492
13:00+19юз9134998 0.0 999997
16:00+20юз8124844 0.0 9981492
19:00+15с4774100 0.2 1000154
22:00+12в228994 0.5 100027
19 мая, ср
ср1901:00+11всв33957 0.5 100035
04:00+9в119525 0.5 99912
07:00+10св5995100 0.0 1002194
10:00+11св338680 0.2 1002245
13:00+15з2471100 0.0 1003774
16:00+17зсз23600 0.0 1003731
19:00+16всв3465100 0.0 1004121
22:00+14св46735 0.0 100595
20 мая, чт
чт2001:00+11св35804 0.0 100563
04:00+9вюв11925 0.0 100513
07:00+11ю238710 0.0 100490
10:00+16ююз61072100 0.1 1002644
13:00+19юз9126689 0.1 1001908
16:00+21юз8125775 0.4 10001379
19:00+20зюз71260100 0.0 1001391
22:00+14зюз51079100 0.4 1002189
21 мая, пт
пт2101:00+12ююз348637 0.0 100348
04:00+11св1185100 0.0 100413
07:00+11ссв236911 0.0 100583
10:00+14ююв11647 0.0 1006341
13:00+16з34519 0.0 1005721
16:00+20зюз36384 0.0 10041018
19:00+19ссз244812 0.0 1004164
22:00+14св6133735 0.0 1008315
22 мая, сб
сб2201:00+11ссв612425 0.0 1008209
04:00+10ссв714443 0.0 1008241
07:00+10ссв814525 0.0 1009254
10:00+13ссв913455 0.0 1009435
13:00+16ссв710405 0.0 1008590
16:00+18ссв79365 0.0 1007546
19:00+16ссв5940100 0.0 1006226
22:00+13св484610 0.0 1007133